Home > Weather > Namur > Past weeks

Flag for Belgium Past Weather in Namur, Belgium — Yesterday and Last 2 Weeks

Now
54 °F

Passing clouds.


Feels Like: 50 °F
Forecast: 51 / 64 °F
Wind: 12 mph from Southwest

Location: Charleroi / Gosselies

Current Time: Jul 2, 2016 at 4:12:01 AM

Latest Report: Jul 2, 2016 at 3:20 AM


Visibility: N/A

Pressure: 29.92 "Hg

Humidity: 94%

Dew Point: 52 °F

Location of NamurLocation

Past Weather in Namur — Graph

°F

Namur Temperature Yesterday

Maximum temperature yesterday: 68 °F (at 5:20 PM)
Minimum temperature yesterday: 57 °F (at 11:50 PM)
Average temperature yesterday: 63 °F

High & Low Weather Summary for the Past Weeks

 TemperatureHumidityPressure
High86 °F (Jun 23, 4:20 PM)100% (Jun 17, 2:50 AM)30.30 "Hg (Jun 17, 2:50 AM)
Low50 °F (Jun 19, 5:50 AM)49% (Jun 29, 4:20 PM)29.62 "Hg (Jun 17, 2:20 AM)
Average61 °F82%30.04 "Hg
* Reported Jun 17 2:20 AM — Jul 2 2:50 AM, Namur, Weather by CustomWeather, © 2016

Note: Actual official high and low records may vary slightly from our data, if they occured in-between our weather recording intervals... More about our weather records

Advertising

Namur Weather History for the Previous 24 Hours

Scroll right to see more
 ConditionsComfort  
Time TempWeatherWind HumidityBarometerVisibility
2:50 AM
Sat, Jul 2
54 °FPassing clouds.10 mph94%29.92 "HgN/A
2:20 AM54 °FPartly cloudy.10 mph94%29.92 "HgN/A
1:50 AM54 °FPassing clouds.10 mph94%29.92 "HgN/A
1:20 AM55 °FPartly cloudy.8 mph88%29.92 "HgN/A
12:50 AM55 °FPartly cloudy.10 mph88%29.92 "HgN/A
12:20 AM55 °FPartly cloudy.13 mph94%29.92 "HgN/A
11:50 PM
Fri, Jul 1
57 °FRain showers. Passing clouds.9 mph94%29.89 "Hg2 mi
11:20 PM59 °FSprinkles. Passing clouds.9 mph94%29.89 "HgN/A
10:50 PM61 °FSprinkles. Partly sunny.12 mph94%29.89 "HgN/A
10:20 PM61 °FLots of rain. Partly sunny.18 mph94%29.89 "Hg1 mi
9:50 PM63 °FScattered clouds.9 mph88%29.89 "HgN/A
9:20 PM64 °FSprinkles. Scattered clouds.16 mph83%29.89 "Hg6 mi
8:50 PM66 °FScattered clouds.16 mph78%29.86 "HgN/A
8:20 PM66 °FScattered clouds.17 mph73%29.86 "HgN/A
7:50 PM68 °FScattered clouds.16 mph73%29.89 "HgN/A
7:20 PM68 °FScattered clouds.18 mph73%29.89 "HgN/A
6:50 PM68 °FScattered clouds.17 mph73%29.89 "HgN/A
6:20 PM68 °FScattered clouds.20 mph73%29.89 "HgN/A
5:50 PM68 °FScattered clouds.18 mph73%29.89 "HgN/A
5:20 PM68 °FScattered clouds.17 mph73%29.92 "HgN/A
4:50 PM66 °FPartly sunny.14 mph78%29.92 "HgN/A
4:20 PM66 °FPartly sunny.20 mph78%29.92 "HgN/A
3:50 PM66 °FPartly sunny.20 mph78%29.92 "HgN/A
3:20 PM64 °FPartly sunny.13 mph83%29.95 "HgN/A
2:50 PM63 °FPartly sunny.16 mph83%29.95 "HgN/A
2:20 PM64 °FBroken clouds.14 mph78%29.95 "HgN/A
1:50 PM64 °FBroken clouds.15 mph78%29.95 "HgN/A
1:20 PM63 °FBroken clouds.14 mph83%29.95 "HgN/A
12:50 PM63 °FSprinkles. Broken clouds.17 mph83%29.98 "HgN/A
12:20 PM63 °FBroken clouds.16 mph83%29.95 "HgN/A
11:50 AM63 °FBroken clouds.14 mph88%29.98 "HgN/A
11:20 AM61 °FPartly sunny.16 mph88%29.95 "HgN/A
10:50 AM63 °FLight rain. Partly sunny.14 mph83%29.95 "HgN/A
10:20 AM63 °FLight rain. Partly sunny.14 mph83%29.95 "HgN/A
9:50 AM61 °FLight rain. Partly sunny.13 mph94%29.95 "Hg5 mi
9:20 AM61 °FLight rain. Partly sunny.12 mph88%29.95 "Hg3 mi
8:50 AM61 °FPartly sunny.10 mph88%29.95 "HgN/A
8:20 AM61 °FPartly sunny.14 mph88%29.95 "HgN/A
7:50 AM61 °FPartly sunny.14 mph88%29.95 "HgN/A
7:20 AM61 °FBroken clouds.13 mph88%29.95 "HgN/A
6:50 AM61 °FBroken clouds.12 mph94%29.92 "HgN/A
6:20 AM61 °FPassing clouds.10 mph94%29.92 "HgN/A
5:50 AM61 °FPassing clouds.12 mph94%29.92 "HgN/A
5:20 AM61 °FPassing clouds.13 mph94%29.92 "HgN/A
4:50 AM61 °FSprinkles. Passing clouds.10 mph94%29.92 "HgN/A
4:20 AM61 °FPassing clouds.10 mph94%29.92 "HgN/A
Weather by CustomWeather, © 2016

See weather overviewHow to use our weather pages